Location: Unspecified
(0.0000°N, 0.0000°E)
Time: 09:57:24
(UTC+00:00)

Envisat - Pass Details

Date: 20 February 2019
Orbit: 764 x 766 km, 98.2° (Epoch: 22 April)

Event Time Altitude Azimuth Distance (km) Brightness Sun altitude
Rises 20:18:47 0° 206° (SSW) 3,228 6.7 -30.7°
Reaches altitude 10° 20:22:51 10° 239° (WSW) 2,299 6.3 -31.6°
Maximum altitude 20:24:25 11° 257° (WSW) 2,201 6.2 -32.0°
Drops below altitude 10° 20:26:00 10° 276° (W) 2,296 6.2 -32.4°
Sets 20:30:05 0° 309° (NW) 3,219 6.7 -33.4°
